FW9693 Weather Reports


time (UTC)temp
F
wind
direction
speed
knots
gust
knots
rain 1hr
in
rain 24hr
in
rain mn
in
humidity
%
barometer
mb
20260505114524 69 243 7.0 8.7 0.00 0.00 0.00 33 1000.2
20260505113036 69 265 7.8 10.4 0.00 0.00 0.00 34 1000.1
20260505111538 68 273 7.8 10.4 0.00 0.00 0.00 35 1000.0
20260505101529 68 303 7.8 13.9 0.00 0.00 0.00 37 999.9
20260505100016 70 233 12.2 15.6 0.00 0.00 0.00 35 1000.0
20260505094511 70 243 12.2 15.6 0.00 0.00 0.00 34 999.9
20260505093009 71 225 12.2 14.8 0.00 0.00 0.00 33 999.9
20260505091506 71 219 9.6 12.2 0.00 0.00 0.00 34 1000.0
20260505090006 72 223 12.2 14.8 0.00 0.00 0.00 32 1000.1
20260505084518 71 221 10.4 13.0 0.00 0.00 0.00 34 1000.0
20260505083002 72 235 11.3 13.9 0.00 0.00 0.00 32 1000.0
20260505081501 73 232 11.3 13.9 0.00 0.00 0.00 31 999.9
20260505080059 72 238 8.7 10.4 0.00 0.00 0.00 33 1000.1
20260505074557 73 235 7.8 10.4 0.00 0.00 0.00 31 1000.3
20260505073058 74 226 8.7 10.4 0.00 0.00 0.00 30 1000.5
20260505071559 74 213 7.8 9.6 0.00 0.00 0.00 30 1000.3
20260505064555 76 214 8.7 9.6 0.00 0.00 0.00 27 1000.8
20260505063045 77 200 7.0 8.7 0.00 0.00 0.00 25 1000.9
20260505061609 79 229 7.0 9.6 0.00 0.00 0.00 23 1001.1
20260505060051 79 223 7.8 9.6 0.00 0.00 0.00 22 1001.2
20260505054548 79 235 7.8 9.6 0.00 0.00 0.00 22 1001.1
20260505053044 79 221 8.7 12.2 0.00 0.00 0.00 23 1001.2
20260505051543 79 229 9.6 12.2 0.00 0.00 0.00 23 1001.2
20260505041541 80 215 6.1 8.7 0.00 0.00 0.00 22 1001.4
20260505040055 81 225 7.8 9.6 0.00 0.00 0.00 20 1001.2
20260505034543 81 225 9.6 10.4 0.00 0.00 0.00 20 1001.0
20260505033039 81 229 8.7 10.4 0.00 0.00 0.00 20 1000.7
20260505031547 81 236 8.7 10.4 0.00 0.00 0.00 20 1000.7
20260505030042 82 249 11.3 13.9 0.00 0.00 0.00 19 1000.8
20260505024538 82 254 11.3 13.9 0.00 0.00 0.00 19 1001.1
20260505023036 83 273 9.6 13.0 0.00 0.00 0.00 19 1001.0
20260505021537 83 262 11.3 14.8 0.00 0.00 0.00 19 1001.0
20260505020040 84 272 11.3 15.6 0.00 0.00 0.00 18 1000.8
20260505014541 84 270 13.0 18.2 0.00 0.00 0.00 17 1000.5
20260505013033 85 275 13.9 20.0 0.00 0.00 0.00 17 1000.4
20260505011536 86 259 14.8 18.2 0.00 0.00 0.00 16 1000.3
20260505010033 86 273 13.9 22.6 0.00 0.00 0.00 15 1000.4
20260505004531 87 262 14.8 21.7 0.00 0.00 0.00 15 1000.4
20260505003029 87 248 10.4 20.0 0.00 0.00 0.00 15 1000.6
20260505001529 87 257 15.6 23.5 0.00 0.00 0.00 14 1000.7
20260505000041 88 273 13.9 23.5 0.00 0.00 0.00 14 1000.8
20260504234528 88 250 16.5 22.6 0.00 0.00 0.00 13 1001.1
20260504233026 88 271 14.8 23.5 0.00 0.00 0.00 14 1001.2
20260504231524 88 265 20.0 25.2 0.00 0.00 0.00 13 1001.0
20260504230025 89 246 19.1 26.9 0.00 0.00 0.00 13 1001.0
20260504224523 88 252 20.9 26.1 0.00 0.00 0.00 12 1001.2
20260504223124 88 264 15.6 26.1 0.00 0.00 0.00 12 1001.3
20260504221526 88 279 17.4 23.5 0.00 0.00 0.00 12 1001.3
20260504220038 88 248 15.6 24.3 0.00 0.00 0.00 14 1001.5
20260504214520 89 267 13.9 23.5 0.00 0.00 0.00 14 1001.8
20260504213017 88 229 19.1 27.8 0.00 0.00 0.00 14 1002.0
20260504211513 88 235 18.2 26.9 0.00 0.00 0.00 16 1002.1
20260504210011 87 259 21.7 27.8 0.00 0.00 0.00 17 1002.4
20260504204510 86 273 13.9 25.2 0.00 0.00 0.00 20 1002.7
20260504203008 86 229 13.9 24.3 0.00 0.00 0.00 20 1003.0
20260504201505 86 244 23.5 29.5 0.00 0.00 0.00 20 1003.3
20260504200004 84 246 20.0 27.8 0.00 0.00 0.00 21 1003.8
20260504194601 84 284 20.0 25.2 0.00 0.00 0.00 22 1003.9
20260504193114 84 261 20.0 29.5 0.00 0.00 0.00 23 1004.3
20260504191558 84 272 20.0 28.7 0.00 0.00 0.00 23 1004.2
20260504190106 83 273 20.0 22.6 0.00 0.00 0.00 26 1004.5
20260504184554 82 268 12.2 20.9 0.00 0.00 0.00 30 1004.5
20260504183058 81 277 15.6 24.3 0.00 0.00 0.00 30 1004.9
20260504181546 80 267 10.4 17.4 0.00 0.00 0.00 34 1005.3
20260504180112 79 254 10.4 18.2 0.00 0.00 0.00 36 1005.6
20260504174539 78 241 12.2 15.6 0.00 0.00 0.00 39 1005.7
20260504173038 78 248 9.6 13.9 0.00 0.00 0.00 40 1005.9
20260504171536 77 234 7.0 12.2 0.00 0.00 0.00 43 1006.0